Simultaneous Nadir Overpasses (SNOs) Predictions

Prediction of SNOs between METOP-A and NPP Satellite Orbit:

Table of predicted SNOs for the next 14.0 days since TLE Epoch: 2/26/2016
Index Date (METOP-A) Time (METOP-A) Lat,Lon (METOP-A) SZA (METOP-A ) Date (NPP) Time (NPP) Lat,Lon (NPP) SZA (NPP ) Distance(km) Time Diff (sec)
1 03/10/2016 17:22:44 73.66, -87.10 77.50 03/10/2016 17:21:38 73.65, -90.12 77.68 94.66 66
2 03/10/2016 18:13:28 -73.57, 80.03 102.59 03/10/2016 18:12:20 -73.54, 77.46 102.47 81.17 68
3 03/10/2016 19:04:12 73.34,-113.17 77.19 03/10/2016 19:03:02 73.36,-114.83 77.32 53.07 70
4 03/10/2016 19:54:56 -73.26, 53.98 102.90 03/10/2016 19:53:44 -73.25, 52.74 102.82 39.61 72
5 03/10/2016 20:45:39 73.07,-139.10 76.93 03/10/2016 20:44:26 73.07,-139.56 76.97 14.82 73
6 03/10/2016 21:36:23 -72.99, 28.05 103.16 03/10/2016 21:35:08 -72.95, 28.00 103.18 3.96 75
7 03/10/2016 22:27:03 72.95,-164.69 76.79 03/10/2016 22:25:54 72.98,-164.73 76.84 3.28 69
8 03/10/2016 23:17:45 -72.97, 2.67 103.21 03/10/2016 23:16:38 -72.96, 2.61 103.19 2.12 67
9 03/11/2016 00:08:25 72.93, 169.93 76.75 03/11/2016 00:07:23 72.93, 169.98 76.76 1.95 62
10 03/11/2016 00:59:07 -72.95, -22.71 103.25 03/11/2016 00:58:08 -72.97, -22.78 103.21 3.24 59
11 03/11/2016 01:49:46 72.96, 144.65 76.75 03/11/2016 01:48:53 72.94, 144.59 76.75 3.06 53
12 03/11/2016 02:40:29 -72.93, -48.08 103.29 03/11/2016 02:39:37 -72.93, -48.06 103.29 0.86 52
13 03/11/2016 03:31:08 72.94, 119.28 76.71 03/11/2016 03:30:23 72.95, 119.20 76.73 2.49 45
14 03/11/2016 04:21:51 -72.91, -73.46 103.34 03/11/2016 04:21:07 -72.94, -73.45 103.31 2.39 44
15 03/11/2016 05:12:30 72.93, 93.90 76.66 03/11/2016 05:11:52 72.91, 93.92 76.65 2.17 38
16 03/11/2016 06:03:13 -72.90, -98.84 103.38 03/11/2016 06:02:36 -72.89, -98.74 103.38 3.35 37
17 03/11/2016 06:53:52 72.91, 68.52 76.62 03/11/2016 06:53:22 72.92, 68.53 76.63 0.93 30
18 03/11/2016 07:44:34 -72.93,-124.11 103.38 03/11/2016 07:44:06 -72.90,-124.13 103.40 3.08 28
19 03/11/2016 08:35:14 72.89, 43.14 76.57 03/11/2016 08:34:51 72.87, 43.24 76.56 3.81 23
20 03/11/2016 09:25:56 -72.91,-149.49 103.43 03/11/2016 09:25:36 </
